Location: *
(33.8649°S, 62.1526°E)
Time: 09:39:39
(UTC+00:00)

Tiangong - Pass Details

Date: 23 September 2021
Orbit: 382 x 385 km, 41.5° (Epoch: 17 October)

Event Time Altitude Azimuth Distance (km) Brightness Sun altitude
Rises 15:18:36 0° 264° (W) 2,287 6.6 -19.3°
Reaches altitude 10° 15:20:54 10° 250° (WSW) 1,433 5.2 -19.8°
Maximum altitude 15:23:40 25° 192° (SSW) 836 3.0 -20.4°
Enters shadow 15:24:18 24° 172° (S) 876 2.9 -20.5°
